DateTimeUTC,F1_A11,F1_S11,BsB_S11,BsG_S11,BsR_S11,BbsB_S11,BbsG_S11,BbsR_S11,BaB_A11,BaG_A11,BaR_A11,Tu_S11,T_S11,Uu_S11,U_S11,P_S11,T1_A11
2021-10-22T11:00:00Z,00000200,21000000,,,,,,,-000.78,-000.30,-000.34,16.3,23.4,,00.0,0649.6,30.9
2021-10-22T11:01:00Z,00000200,21000000,,,,,,,-000.20,-000.02,-000.32,16.3,23.4,,00.0,0649.6,30.8
2021-10-22T11:02:00Z,00000200,21000000,,,,,,,-000.42,-000.70,-000.40,16.2,23.4,,00.0,0649.6,30.8
2021-10-22T11:03:00Z,00000200,61000000,,,,,,,-000.38,-000.39,-000.31,16.2,23.4,,00.0,0649.6,30.8
2021-10-22T11:04:00Z,00000200,41000000,0001.18,0000.84,0000.35,-000.01,-000.21,-000.11,-000.06,-000.09,0000.39,16.2,23.1,,00.0,0650.4,30.8
2021-10-22T11:05:00Z,00000200,01000000,0000.93,0000.50,0000.27,0000.22,-000.00,0000.16,0000.10,0000.18,0000.05,16.2,23.0,,00.0,0650.5,30.8
2021-10-22T11:06:00Z,00000200,01000000,0001.16,0000.53,0000.43,0000.11,-000.11,0000.06,0000.23,-000.25,-000.03,16.2,23.0,,00.0,0650.5,30.8
2021-10-22T11:07:00Z,00000200,01000000,0000.65,0000.66,0000.33,-000.15,-000.17,-000.07,0000.07,0000.46,0000.08,16.2,23.0,,00.0,0650.5,30.8
2021-10-22T11:08:00Z,00000200,01000000,0002.03,0000.43,0000.57,-000.01,-000.04,0000.43,0000.43,0000.19,0000.51,16.3,23.0,,00.0,0650.5,30.8
2021-10-22T11:09:00Z,00000200,01000000,0001.31,0000.57,0000.35,0000.14,0000.13,0000.24,0000.93,0000.46,0000.74,16.3,22.9,,00.0,0650.5,30.8
2021-10-22T11:10:00Z,00000200,01000000,0001.08,0000.51,0000.19,-000.02,-000.06,-000.48,0000.77,0000.99,0000.25,16.3,23.0,,00.0,0650.5,30.8
2021-10-22T11:11:00Z,00000200,01000000,0001.09,0000.55,0000.36,0000.29,-000.06,-000.04,0000.21,0000.64,0000.46,16.3,23.0,,00.0,0650.6,30.9
2021-10-22T11:12:00Z,00000200,01000000,0001.69,0000.69,0000.41,0000.33,0000.20,-000.18,0000.41,0000.24,-000.26,16.4,23.0,,00.0,0650.5,30.9
2021-10-22T11:13:00Z,00000200,01000000,0001.54,0000.53,-000.09,0000.00,0000.08,0000.15,-000.17,-000.46,0000.37,16.4,23.0,,00.0,0650.5,30.9
2021-10-22T11:14:00Z,00000200,01000000,0001.31,0000.64,0000.13,-000.40,0000.24,0000.08,-000.20,0000.20,-000.33,16.4,23.0,,00.0,0650.5,30.9
2021-10-22T11:15:00Z,00000200,01000000,0002.00,0000.59,0000.34,-000.36,0000.04,-000.08,-000.23,-000.68,-000.34,16.5,23.0,,00.0,0650.6,30.9
2021-10-22T11:16:00Z,00000200,01000000,0000.89,0000.37,0000.34,-000.06,-000.16,0000.10,-000.73,-000.17,-000.19,16.5,23.0,,00.0,0650.5,30.9
2021-10-22T11:17:00Z,00000200,01000000,0001.25,0000.21,0000.32,0000.09,0000.22,0000.09,0000.65,0000.22,0000.11,16.5,23.0,,00.0,0650.6,30.9
2021-10-22T11:18:00Z,00000200,01000000,0001.39,0000.65,0000.33,-000.16,-000.00,0000.11,0000.06,0000.45,0000.54,16.4,23.0,,00.0,0650.6,30.9
2021-10-22T11:19:00Z,00000200,01000000,0001.05,0000.73,0000.38,-000.02,-000.07,0000.00,0001.04,0001.07,0000.49,16.4,23.0,,00.0,0650.6,30.9
2021-10-22T11:20:00Z,00000200,01000000,0001.97,0000.43,0000.52,-000.06,0000.30,0000.09,0000.47,0000.13,0000.34,16.3,23.0,,00.0,0650.6,30.9
2021-10-22T11:21:00Z,00000200,01000000,0000.72,0000.67,0000.63,0000.44,-000.09,0000.30,0000.02,0000.02,-000.26,16.3,23.0,,00.0,0650.6,30.9
2021-10-22T11:22:00Z,00000200,01000000,0001.00,0000.41,0000.33,-000.20,-000.05,0000.25,-000.55,-000.25,-000.18,16.4,23.0,,00.0,0650.6,30.9
2021-10-22T11:23:00Z,00000200,01000000,0000.92,0000.98,0000.65,-000.52,-000.13,0000.06,-000.23,-000.62,-000.09,16.4,23.0,,00.0,0650.5,30.9
2021-10-22T11:24:00Z,00000200,01000000,0001.58,0000.48,0000.48,0000.16,-000.09,-000.27,0000.10,0000.90,-000.01,16.4,23.0,,00.0,0650.5,30.9
2021-10-22T11:25:00Z,00000200,01000000,0001.08,0000.75,-000.12,0000.10,-000.11,-000.06,0000.27,-000.36,0000.22,16.4,23.0,,00.0,0650.5,30.9
2021-10-22T11:26:00Z,00000200,01000000,0000.93,0000.70,0000.33,-000.11,-000.20,-000.27,0000.17,0000.42,0000.51,16.4,23.0,,00.0,0650.5,30.9
2021-10-22T11:27:00Z,00000200,01000000,0001.64,0000.65,0000.36,0000.30,-000.15,-000.06,0001.11,0000.56,0000.38,16.5,23.0,,00.0,0650.4,30.9
2021-10-22T11:28:00Z,00000200,01000000,0001.50,0000.26,0000.70,0000.55,-000.21,0000.09,0000.28,0000.76,0000.33,16.4,23.0,,00.0,0650.5,30.9
2021-10-22T11:29:00Z,00000200,01000000,0000.95,0000.45,0000.58,-000.45,-000.03,0000.04,0000.85,0000.69,0000.46,16.4,23.0,,00.0,0650.5,30.9
2021-10-22T11:30:00Z,00000200,01000000,0001.17,0000.72,0000.42,0000.35,0000.31,0000.01,0000.07,-000.43,0000.12,16.3,22.9,,00.0,0650.4,30.8
2021-10-22T11:31:00Z,00000200,01000000,0000.59,0000.50,0000.44,-000.18,-000.13,-000.05,-000.03,0000.53,-000.21,16.1,22.9,,00.0,0650.4,30.8
2021-10-22T11:32:00Z,00000200,01000000,0001.22,0000.55,0000.48,0000.24,0000.13,0000.36,0000.36,-000.14,0000.30,16.0,22.8,,00.0,0650.4,30.8
2021-10-22T11:33:00Z,00000200,01000000,0001.08,0000.41,0000.47,-000.13,0000.21,0000.13,0000.37,0000.64,0000.53,15.9,22.8,,00.0,0650.4,30.8
2021-10-22T11:34:00Z,00000200,01000000,0000.74,0000.59,0000.60,0000.12,-000.25,0000.24,0001.01,0000.66,0000.07,15.9,22.7,,00.0,0650.4,30.8
2021-10-22T11:35:00Z,00000200,01000000,0000.99,0000.41,0000.38,-000.16,0000.09,0000.15,0000.22,0000.20,0000.23,15.9,22.7,,00.0,0650.4,30.8
2021-10-22T11:36:00Z,00000200,01000000,0001.55,0000.63,0000.46,0000.50,0000.07,0000.01,0000.20,0000.16,0000.29,15.8,22.7,,00.0,0650.3,30.8
2021-10-22T11:37:00Z,00000200,01000000,0001.53,0000.78,0000.18,0000.07,0000.32,0000.18,0000.14,0000.53,0000.05,15.9,22.7,,00.0,0650.4,30.8
2021-10-22T11:38:00Z,00000200,01000000,0001.43,0000.84,0000.10,-000.07,-000.13,-000.09,0000.80,0000.72,0000.40,15.9,22.7,,00.0,0650.3,30.8
2021-10-22T11:39:00Z,00000200,01000000,0000.61,0000.29,0000.70,0000.04,0000.22,-000.10,0000.34,0000.18,0000.77,15.9,22.7,,00.0,0650.3,30.8
2021-10-22T11:40:00Z,00000200,01000000,0001.73,0000.93,0000.38,0000.02,-000.10,0000.17,-000.04,-000.01,-000.49,16.0,22.7,,00.0,0650.3,30.8
2021-10-22T11:41:00Z,00000200,01000000,0001.14,0000.50,0000.54,0000.68,0000.24,0000.11,0000.28,0000.12,0000.38,15.9,22.7,,00.0,0650.3,30.8
2021-10-22T11:42:00Z,00000200,01000000,0001.62,0000.61,0000.16,-000.15,0000.18,-000.00,0000.49,0000.37,-000.09,15.9,22.7,,00.0,0650.3,30.8
2021-10-22T11:43:00Z,00000200,01000000,0000.71,0000.63,0000.35,-000.12,0000.01,-000.01,0000.69,0000.72,0000.81,15.9,22.7,,00.0,0650.3,30.8
2021-10-22T11:44:00Z,00000200,01000000,0001.54,0000.61,0000.44,-000.08,0000.34,-000.44,0000.39,0000.19,0000.60,15.9,22.7,,00.0,0650.3,30.8
2021-10-22T11:45:00Z,00000200,01000000,0000.85,0000.60,0000.64,0001.14,0000.18,0000.02,-000.11,0000.38,-000.48,15.9,22.7,,00.0,0650.3,30.8
2021-10-22T11:46:00Z,00000200,01000000,0000.99,0001.29,0000.76,-000.22,0000.04,0000.17,0001.09,0000.46,0001.01,16.0,22.7,,00.0,0650.2,30.8
2021-10-22T11:47:00Z,00000200,01000000,0000.89,0000.48,0000.44,-000.40,-000.30,0000.06,-000.34,0000.05,-000.26,16.0,22.7,,00.0,0650.2,30.8
2021-10-22T11:48:00Z,00000200,01000000,0001.42,0000.59,0000.59,0000.03,-000.08,0000.11,0000.27,0000.15,0000.34,16.0,22.7,,00.0,0650.2,30.8
2021-10-22T11:49:00Z,00000200,01000000,0000.50,0000.46,0000.32,0000.06,0000.12,0000.07,0000.41,0000.39,0000.44,16.0,22.7,,00.0,0650.2,30.9
2021-10-22T11:50:00Z,00000200,01000000,0001.08,0000.43,0000.40,-000.42,0000.12,0000.19,0000.65,0000.49,0000.37,16.0,22.7,,00.0,0650.2,30.9
2021-10-22T11:51:00Z,00000200,01000000,0000.43,0000.65,0000.39,0000.26,0000.05,0000.38,0000.57,0000.85,0000.13,16.0,22.7,,00.0,0650.2,30.9
2021-10-22T11:52:00Z,00000200,01000000,0000.50,0000.61,0000.22,-000.03,0000.15,0000.16,0000.71,0000.55,0000.75,16.0,22.7,,00.0,0650.2,30.9
2021-10-22T11:53:00Z,00000200,01000000,0001.09,0000.38,0000.33,-000.08,-000.13,0000.26,0000.63,0000.57,0000.19,16.0,22.8,,00.0,0650.2,30.9
2021-10-22T11:54:00Z,00000200,01000000,0000.48,0000.29,0000.20,-000.04,-000.06,-000.01,0000.35,0000.17,0000.09,16.0,22.7,,00.0,0650.2,30.9
2021-10-22T11:55:00Z,00000200,01000000,0001.59,0000.38,0000.01,-000.10,0000.06,0000.01,0000.55,0000.63,0000.39,16.0,22.8,,00.0,0650.2,30.9
2021-10-22T11:56:00Z,00000200,01000000,0001.50,0000.48,0000.22,-000.57,0000.31,0000.01,0000.19,0000.15,0000.39,16.0,22.8,,00.0,0650.2,30.9
2021-10-22T11:57:00Z,00000200,41000000,,,,,,,0000.25,0000.54,-000.02,16.1,22.8,,00.0,0650.2,30.9
2021-10-22T11:58:00Z,00000200,61000000,,,,,,,0000.43,0000.19,0000.32,15.7,22.9,,00.0,0649.2,30.9
2021-10-22T11:59:00Z,00000200,21000000,,,,,,,-000.07,-000.01,-000.15,15.7,23.0,,00.0,0649.2,30.9
